This demonstration page uses our WeatherBlox Daily Observations layout. Learn more.

39.29038, -76.61219

Hourly Observations for June 14, 2019

Temp ( °F °C ) Dew Point ( °F °C ) Humidity (%) Winds ( mph kmh ) Pressure ( in mb ) Visibility ( mi km ) Precip ( " mm )
12:54 am 00:54 undefined 62 16.7 51 10.6 67 67 undefined N/A 29.83 1010 N/A 0 0
1:54 am 01:54 undefined 61 16.1 50 10 67 67 undefined N/A 29.85 1011 N/A 0 0
2:54 am 02:54 undefined 60 15.6 48 8.9 65 65 undefined N/A 29.85 1011 N/A 0 0
3:54 am 03:54 undefined 60 15.6 46 7.8 60 60 undefined N/A 29.85 1011 N/A 0 0
4:54 am 04:54 undefined 61 16.1 44 6.7 54 54 undefined N/A 29.88 1012 N/A 0 0
5:54 am 05:54 undefined 61 16.1 45 7.2 56 56 undefined N/A 29.91 1013 N/A 0 0
6:54 am 06:54 undefined 62 16.7 46 7.8 56 56 undefined N/A 29.91 1013 N/A 0 0
7:54 am 07:54 undefined 64 17.8 48 8.9 56 56 undefined N/A 29.97 1015 N/A 0 0
8:54 am 08:54 undefined 63 17.2 49 9.4 60 60 undefined N/A 29.97 1015 N/A 0 0
9:54 am 09:54 undefined 64 17.8 49 9.4 58 58 undefined N/A 30 1016 N/A 0 0
10:54 am 10:54 undefined 67 19.4 47 8.3 49 49 undefined N/A 30.03 1017 N/A 0 0
11:54 am 11:54 undefined 69 20.6 48 8.9 47 47 undefined N/A 30.03 1017 N/A 0 0
12:54 pm 12:54 undefined 71 21.7 46 7.8 41 41 undefined N/A 30.06 1018 N/A 0 0
1:54 pm 13:54 undefined 71 21.7 43 6.1 36 36 undefined N/A 30.06 1018 N/A 0 0
2:54 pm 14:54 undefined 74 23.3 42 5.6 32 32 undefined N/A 30.06 1018 N/A 0 0
3:54 pm 15:54 undefined 75 23.9 42 5.6 31 31 undefined N/A 30.03 1017 N/A 0 0
4:54 pm 16:54 undefined 76 24.4 42 5.6 30 30 undefined N/A 30.03 1017 N/A 0 0
5:54 pm 17:54 undefined 76 24.4 43 6.1 31 31 undefined N/A 30 1016 N/A 0 0
6:54 pm 18:54 undefined 75 23.9 43 6.1 32 32 undefined N/A 30.03 1017 N/A 0 0
7:54 pm 19:54 undefined 74 23.3 44 6.7 34 34 undefined N/A 30.03 1017 N/A 0 0
8:54 pm 20:54 undefined 72 22.2 45 7.2 38 38 undefined N/A 30.06 1018 N/A 0 0
9:54 pm 21:54 undefined 70 21.1 46 7.8 42 42 undefined N/A 30.09 1019 N/A 0 0
10:54 pm 22:54 undefined 67 19.4 48 8.9 51 51 undefined N/A 30.12 1020 N/A 0 0
11:54 pm 23:54 undefined 67 19.4 48 8.9 51 51 undefined N/A 30.12 1020 N/A 0 0

Powered by AerisWeather